Atka, AK

11:22 PM HST on January 19, 2018 (GMT -1000)
Atka

Weather History for PAAK - November, 2012

Change the Weather History Date:

Sunday, November 4, 2012

  Actual Average (PADK) Record (PADK)
Temperature  
Mean Temperature 36 °F -  
Max Temperature 39 °F 44 °F 50 °F (1969)
Min Temperature 33 °F 35 °F 27 °F (1960)
Degree Days  
Heating Degree Days 29    
Moisture  
Dew Point 26 °F    
Average Humidity 66    
Maximum Humidity 87    
Minimum Humidity 52    
Precipitation  
Precipitation 0.00 in - - ()
Sea Level Pressure  
Sea Level Pressure 30.16 in    
Wind  
Wind Speed 14 mph (NNW)    
Max Wind Speed 20 mph    
Max Gust Speed 29 mph    
Visibility 10 miles    
Events      
Averages and records for this station are not official NWS values.
T = Trace of Precipitation, MM = Missing Value Source: NWS Daily Summary

Daily Weather History Graph

Daily Weather History Graph

Search for Another Location

Airport or City:

Trip Planner

Search our weather history database for the weather conditions in past years. The results will help you decide how hot, cold, wet, or windy it might be!

Date:

Astronomy

Nov. 04, 2012 Rise Set
Actual Time 8:39 AM HST 6:00 PM HST
Civil Twilight 8:02 AM HST 6:37 PM HST
Nautical Twilight 7:22 AM HST 7:17 PM HST
Astronomical Twilight 6:42 AM HST 7:56 PM HST
Moon 10:47 PM HST (11/4) 1:38 PM HST (11/4)
Length of Visible Light 10h 34m
Length of Day
9h 21m
Waning Gibbous, 70% of the Moon is Illuminated
Nov 4
Waning Gibbous
Nov 6
Last Quarter
Nov 13
New
Nov 20
First Quarter
Nov 28
Full

Hourly Weather History & Observations

Time (HST) Temp. Windchill Dew Point Humidity Pressure Visibility Wind Dir Wind Speed Gust Speed Precip Events Conditions
12:16 AM 35.6 °F 26.6 °F 26.6 °F 70% 30.08 in 10.0 mi NNW 13.8 mph 24.2 mph N/A   Overcast
12:36 AM 35.6 °F 26.6 °F 26.6 °F 70% 30.08 in 10.0 mi NNW 13.8 mph 28.8 mph N/A   Overcast
12:56 AM 37.4 °F 27.8 °F 23.0 °F 56% 30.08 in 10.0 mi NNW 17.3 mph 26.5 mph N/A   Overcast
1:16 AM 37.4 °F 28.9 °F 21.2 °F 52% 30.09 in 10.0 mi NNW 13.8 mph 27.6 mph N/A   Overcast
1:36 AM 37.4 °F 28.5 °F 21.2 °F 52% 30.09 in 10.0 mi NNW 15.0 mph 23.0 mph N/A   Overcast
1:56 AM 35.6 °F 26.2 °F 23.0 °F 60% 30.09 in 10.0 mi NNW 15.0 mph - N/A   Overcast
1:16 AM 35.6 °F 25.9 °F 24.8 °F 65% 30.09 in 10.0 mi North 16.1 mph 23.0 mph N/A   Overcast
1:36 AM 35.6 °F 25.9 °F 24.8 °F 65% 30.09 in 10.0 mi NNW 16.1 mph 21.9 mph N/A   Overcast
1:56 AM 35.6 °F 25.5 °F 24.8 °F 65% 30.10 in 10.0 mi NW 17.3 mph 26.5 mph N/A   Overcast
2:16 AM 35.6 °F 26.2 °F 24.8 °F 65% 30.09 in 10.0 mi NNW 15.0 mph 23.0 mph N/A   Overcast
2:36 AM 35.6 °F 26.6 °F 26.6 °F 70% 30.09 in 10.0 mi NNW 13.8 mph 24.2 mph N/A   Overcast
2:56 AM 35.6 °F 25.2 °F 24.8 °F 65% 30.10 in 10.0 mi NW 18.4 mph - N/A   Overcast
3:16 AM 35.6 °F 25.9 °F 23.0 °F 60% 30.11 in 10.0 mi NW 16.1 mph 23.0 mph N/A   Overcast
3:36 AM 35.6 °F 27.1 °F 23.0 °F 60% 30.11 in 10.0 mi NW 12.7 mph - N/A   Overcast
3:56 AM 35.6 °F 27.5 °F 26.6 °F 70% 30.11 in 10.0 mi NW 11.5 mph 18.4 mph N/A   Overcast
4:16 AM 35.6 °F 25.9 °F 26.6 °F 70% 30.11 in 10.0 mi NNW 16.1 mph 23.0 mph N/A   Overcast
4:36 AM 35.6 °F 24.8 °F 26.6 °F 70% 30.11 in 10.0 mi NNW 19.6 mph 23.0 mph N/A   Overcast
4:56 AM 35.6 °F 26.2 °F 26.6 °F 70% 30.11 in 10.0 mi NNW 15.0 mph 23.0 mph N/A   Overcast
5:16 AM 35.6 °F 25.9 °F 24.8 °F 65% 30.11 in 10.0 mi NNW 16.1 mph - N/A   Overcast
5:36 AM 37.4 °F 28.9 °F 23.0 °F 56% 30.12 in 10.0 mi NNW 13.8 mph 26.5 mph N/A   Overcast
5:56 AM 35.6 °F 25.9 °F 24.8 °F 65% 30.12 in 10.0 mi NW 16.1 mph 23.0 mph N/A   Overcast
6:16 AM 37.4 °F 29.3 °F 24.8 °F 60% 30.13 in 10.0 mi NNW 12.7 mph 18.4 mph N/A   Overcast
6:36 AM 37.4 °F 29.8 °F 24.8 °F 60% 30.13 in 10.0 mi NNW 11.5 mph - N/A   Overcast
6:56 AM 37.4 °F 28.2 °F 23.0 °F 56% 30.13 in 10.0 mi NNW 16.1 mph 23.0 mph N/A   Overcast
7:16 AM 37.4 °F 27.5 °F 21.2 °F 52% 30.13 in 10.0 mi NW 18.4 mph 25.3 mph N/A   Overcast
7:36 AM 37.4 °F 29.3 °F 21.2 °F 52% 30.13 in 10.0 mi NNW 12.7 mph - N/A   Overcast
7:56 AM 37.4 °F 27.5 °F 24.8 °F 60% 30.13 in 10.0 mi NW 18.4 mph 21.9 mph N/A   Overcast
8:16 AM 37.4 °F 28.2 °F 23.0 °F 56% 30.14 in 10.0 mi NNW 16.1 mph - N/A   Overcast
8:36 AM 37.4 °F 30.3 °F 23.0 °F 56% 30.14 in 10.0 mi NNW 10.4 mph 16.1 mph N/A   Overcast
8:56 AM 37.4 °F 28.2 °F 24.8 °F 60% 30.15 in 10.0 mi NNW 16.1 mph 20.7 mph N/A   Overcast
9:16 AM 35.6 °F 25.5 °F 24.8 °F 65% 30.15 in 10.0 mi NNW 17.3 mph 25.3 mph N/A   Overcast
9:36 AM 37.4 °F 27.8 °F 24.8 °F 60% 30.15 in 10.0 mi NNW 17.3 mph 21.9 mph N/A   Overcast
9:56 AM 37.4 °F 28.5 °F 23.0 °F 56% 30.15 in 10.0 mi NNW 15.0 mph 19.6 mph N/A   Overcast
10:16 AM 35.6 °F 27.1 °F 26.6 °F 70% 30.16 in 10.0 mi NNW 12.7 mph - N/A   Overcast
10:36 AM 37.4 °F 28.9 °F 26.6 °F 65% 30.16 in 10.0 mi NW 13.8 mph - N/A   Overcast
10:56 AM 37.4 °F 28.5 °F 24.8 °F 60% 30.16 in 10.0 mi NNW 15.0 mph 20.7 mph N/A   Overcast
11:16 AM 37.4 °F 28.2 °F 24.8 °F 60% 30.16 in 10.0 mi NNW 16.1 mph 21.9 mph N/A   Overcast
11:36 AM 37.4 °F 28.9 °F 24.8 °F 60% 30.17 in 10.0 mi NNW 13.8 mph - N/A   Overcast
11:56 AM 37.4 °F 28.9 °F 26.6 °F 65% 30.17 in 10.0 mi NNW 13.8 mph 18.4 mph N/A   Overcast
12:16 PM 37.4 °F 28.9 °F 26.6 °F 65% 30.18 in 10.0 mi NW 13.8 mph 18.4 mph N/A   Overcast
12:36 PM 37.4 °F 29.8 °F 26.6 °F 65% 30.18 in 10.0 mi NNW 11.5 mph - N/A   Overcast
12:56 PM 37.4 °F 28.5 °F 26.6 °F 65% 30.18 in 10.0 mi NW 15.0 mph - N/A   Overcast
1:16 PM 37.4 °F 28.9 °F 26.6 °F 65% 30.18 in 10.0 mi NW 13.8 mph - N/A   Overcast
1:36 PM 35.6 °F 26.2 °F 28.4 °F 75% 30.18 in 5.0 mi NNW 15.0 mph - N/A   Overcast
1:56 PM 37.4 °F 29.3 °F 28.4 °F 70% 30.19 in 10.0 mi NNW 12.7 mph - N/A   Overcast
2:16 PM 37.4 °F 28.9 °F 26.6 °F 65% 30.18 in 10.0 mi NNW 13.8 mph 17.3 mph N/A   Overcast
2:36 PM 39.2 °F 33.6 °F 26.6 °F 61% 30.19 in 10.0 mi NNW 8.1 mph - N/A   Overcast
2:56 PM 39.2 °F 32.0 °F 24.8 °F 56% 30.19 in 10.0 mi North 11.5 mph 18.4 mph N/A   Overcast
3:16 PM 33.8 °F 24.8 °F 28.4 °F 81% 30.20 in 2.0 mi NW 12.7 mph 17.3 mph N/A   Overcast
3:36 PM 35.6 °F 28.6 °F 28.4 °F 75% 30.20 in 10.0 mi NW 9.2 mph - N/A   Overcast
3:56 PM 35.6 °F 31.7 °F 28.4 °F 75% 30.20 in 10.0 mi NW 4.6 mph - N/A   Overcast
4:16 PM 35.6 °F 29.2 °F 28.4 °F 75% 30.20 in 9.0 mi NW 8.1 mph - N/A   Overcast
4:36 PM 37.4 °F 29.8 °F 30.2 °F 75% 30.20 in 10.0 mi NNW 11.5 mph - N/A   Overcast
4:56 PM 37.4 °F 28.9 °F 26.6 °F 65% 30.20 in 10.0 mi NNW 13.8 mph - N/A   Overcast
5:16 PM 37.4 °F 29.3 °F 28.4 °F 70% 30.20 in 10.0 mi NNW 12.7 mph - N/A   Overcast
5:36 PM 37.4 °F 29.8 °F 26.6 °F 65% 30.21 in 10.0 mi NNW 11.5 mph - N/A   Overcast
5:56 PM 35.6 °F 28.6 °F 26.6 °F 70% 30.22 in 10.0 mi NNW 9.2 mph - N/A   Overcast
6:16 PM 35.6 °F 27.5 °F 26.6 °F 70% 30.21 in 10.0 mi NNW 11.5 mph - N/A   Overcast
6:36 PM 35.6 °F 26.6 °F 26.6 °F 70% 30.22 in 10.0 mi NNW 13.8 mph 19.6 mph N/A   Overcast
6:56 PM 35.6 °F 29.2 °F 28.4 °F 75% 30.22 in 10.0 mi NNW 8.1 mph - N/A   Overcast
7:16 PM 35.6 °F 27.5 °F 26.6 °F 70% 30.22 in 10.0 mi NNW 11.5 mph - N/A   Overcast
7:36 PM 35.6 °F 29.2 °F 26.6 °F 70% 30.23 in 10.0 mi NW 8.1 mph - N/A   Overcast
7:56 PM 35.6 °F 26.6 °F 26.6 °F 70% 30.23 in 10.0 mi NNW 13.8 mph 17.3 mph N/A   Overcast
8:16 PM 35.6 °F 29.2 °F 26.6 °F 70% 30.24 in 10.0 mi NNW 8.1 mph - N/A   Overcast
8:36 PM 35.6 °F 27.1 °F 24.8 °F 65% 30.24 in 8.0 mi NNW 12.7 mph - N/A   Overcast
8:56 PM 35.6 °F 26.6 °F 28.4 °F 75% 30.24 in 10.0 mi NNW 13.8 mph - N/A   Overcast
9:16 PM 35.6 °F 28.6 °F 28.4 °F 75% 30.24 in 10.0 mi NW 9.2 mph - N/A   Overcast
9:36 PM 33.8 °F 26.4 °F 28.4 °F 81% 30.25 in 10.0 mi NW 9.2 mph - N/A   Scattered Clouds
9:56 PM 35.6 °F 26.2 °F 28.4 °F 75% 30.25 in 8.0 mi NNW 15.0 mph - N/A   Mostly Cloudy
10:16 PM 33.8 °F 30.8 °F 30.2 °F 87% 30.26 in 10.0 mi North 3.5 mph - N/A   Overcast
10:36 PM 35.6 °F - 28.4 °F 75% 30.26 in 10.0 mi Calm Calm - N/A   Overcast
10:56 PM 35.6 °F 32.8 °F 28.4 °F 75% 30.26 in 10.0 mi NW 3.5 mph - N/A   Overcast